TimeCDT,TemperatureF,Dew PointF,Humidity,Sea Level PressureIn,VisibilityMPH,Wind Direction,Wind SpeedMPH,Gust SpeedMPH,PrecipitationIn,Events,Conditions,WindDirDegrees,DateUTC
12:15 AM,62.6,62.6,100,30.22,10.0,Calm,Calm,-,N/A,,Clear,0,2013-09-17 05:15:00
12:35 AM,62.1,62.1,100,30.22,10.0,Calm,Calm,-,N/A,,Clear,0,2013-09-17 05:35:00
12:55 AM,61.9,61.9,100,30.21,10.0,Calm,Calm,-,N/A,,Clear,0,2013-09-17 05:55:00
1:15 AM,62.1,62.1,100,30.21,10.0,NNE,3.5,-,N/A,,Clear,30,2013-09-17 06:15:00
1:35 AM,61.7,61.7,100,30.21,10.0,NE,3.5,-,N/A,,Clear,40,2013-09-17 06:35:00
1:55 AM,61.3,61.3,100,30.21,10.0,NE,3.5,-,N/A,,Clear,40,2013-09-17 06:55:00
2:15 AM,61.2,61.2,100,30.21,10.0,Calm,Calm,-,N/A,,Clear,0,2013-09-17 07:15:00
2:35 AM,60.6,60.6,100,30.21,10.0,Calm,Calm,-,N/A,,Clear,0,2013-09-17 07:35:00
2:55 AM,60.4,60.4,100,30.21,7.0,NNE,4.6,-,N/A,,Clear,20,2013-09-17 07:55:00
3:15 AM,60.3,60.3,100,30.21,7.0,NE,3.5,-,N/A,,Clear,50,2013-09-17 08:15:00
3:35 AM,59.9,59.9,100,30.21,10.0,NE,3.5,-,N/A,,Clear,40,2013-09-17 08:35:00
3:55 AM,59.9,59.9,100,30.21,10.0,Calm,Calm,-,N/A,,Clear,0,2013-09-17 08:55:00
4:15 AM,59.4,59.4,100,30.21,7.0,Calm,Calm,-,N/A,,Clear,0,2013-09-17 09:15:00
4:35 AM,59.0,59.0,100,30.20,7.0,NE,4.6,-,N/A,,Clear,50,2013-09-17 09:35:00
4:55 AM,58.5,58.5,100,30.20,7.0,Calm,Calm,-,N/A,,Clear,0,2013-09-17 09:55:00
5:15 AM,58.1,58.1,100,30.21,7.0,NE,3.5,-,N/A,,Clear,40,2013-09-17 10:15:00
5:35 AM,58.1,58.1,100,30.21,7.0,NNE,4.6,-,N/A,,Clear,30,2013-09-17 10:35:00
5:55 AM,57.7,57.7,100,30.21,7.0,Calm,Calm,-,N/A,,Clear,0,2013-09-17 10:55:00
6:15 AM,57.6,57.6,100,30.22,7.0,NNE,3.5,-,N/A,,Clear,30,2013-09-17 11:15:00
6:35 AM,57.6,57.6,100,30.22,4.0,NNE,3.5,-,N/A,,Clear,30,2013-09-17 11:35:00
6:55 AM,57.4,57.4,100,30.23,5.0,NNE,4.6,-,N/A,,Clear,30,2013-09-17 11:55:00
7:15 AM,58.3,58.3,100,30.23,7.0,Calm,Calm,-,N/A,,Clear,0,2013-09-17 12:15:00
7:35 AM,59.4,59.4,100,30.23,7.0,Calm,Calm,-,N/A,,Clear,0,2013-09-17 12:35:00
7:55 AM,59.9,59.9,100,30.23,7.0,ENE,3.5,-,N/A,,Clear,70,2013-09-17 12:55:00
8:15 AM,61.0,59.4,94,30.23,7.0,ENE,5.8,-,N/A,,Scattered Clouds,70,2013-09-17 13:15:00
8:35 AM,62.6,59.0,88,30.24,10.0,East,4.6,-,N/A,,Scattered Clouds,80,2013-09-17 13:35:00
8:55 AM,64.2,59.0,83,30.24,10.0,East,4.6,-,N/A,,Clear,80,2013-09-17 13:55:00
9:15 AM,65.5,59.0,80,30.24,7.0,NE,3.5,-,N/A,,Clear,50,2013-09-17 14:15:00
9:35 AM,66.9,59.5,77,30.24,10.0,ENE,4.6,-,N/A,,Clear,60,2013-09-17 14:35:00
9:55 AM,68.4,59.2,72,30.24,10.0,ENE,4.6,-,N/A,,Clear,60,2013-09-17 14:55:00
10:15 AM,69.3,59.5,71,30.23,10.0,East,6.9,-,N/A,,Clear,100,2013-09-17 15:15:00
10:35 AM,71.6,59.0,64,30.23,10.0,East,5.8,-,N/A,,Clear,80,2013-09-17 15:35:00
10:55 AM,72.9,59.4,62,30.23,10.0,East,5.8,-,N/A,,Clear,80,2013-09-17 15:55:00
11:15 AM,73.2,59.2,61,30.23,10.0,ESE,5.8,-,N/A,,Clear,120,2013-09-17 16:15:00
11:35 AM,73.9,58.8,59,30.22,10.0,ENE,5.8,-,N/A,,Clear,60,2013-09-17 16:35:00
11:55 AM,75.0,59.4,58,30.22,10.0,East,5.8,-,N/A,,Clear,90,2013-09-17 16:55:00
12:15 PM,75.7,58.8,56,30.21,10.0,East,6.9,-,N/A,,Clear,90,2013-09-17 17:15:00
12:35 PM,76.8,59.4,55,30.21,10.0,East,4.6,-,N/A,,Clear,100,2013-09-17 17:35:00
12:55 PM,77.5,59.7,54,30.20,10.0,East,4.6,-,N/A,,Clear,80,2013-09-17 17:55:00
1:15 PM,77.0,60.1,56,30.19,10.0,ESE,6.9,-,N/A,,Clear,110,2013-09-17 18:15:00
1:35 PM,77.9,59.4,53,30.18,10.0,ENE,4.6,-,N/A,,Clear,60,2013-09-17 18:35:00
1:55 PM,78.8,59.4,51,30.17,10.0,East,8.1,-,N/A,,Clear,90,2013-09-17 18:55:00
2:15 PM,79.7,59.2,49,30.17,10.0,Calm,Calm,-,N/A,,Clear,0,2013-09-17 19:15:00
2:35 PM,79.2,58.5,49,30.16,10.0,Calm,Calm,-,N/A,,Scattered Clouds,0,2013-09-17 19:35:00
2:55 PM,78.8,59.0,51,30.16,10.0,Calm,Calm,-,N/A,,Mostly Cloudy,0,2013-09-17 19:55:00
3:15 PM,79.9,59.5,50,30.15,10.0,ESE,4.6,-,N/A,,Scattered Clouds,120,2013-09-17 20:15:00
3:35 PM,80.1,59.5,49,30.15,10.0,East,6.9,-,N/A,,Clear,90,2013-09-17 20:35:00
3:55 PM,80.1,59.4,49,30.14,10.0,Calm,Calm,-,N/A,,Clear,0,2013-09-17 20:55:00
4:15 PM,80.1,59.5,49,30.14,10.0,Calm,Calm,-,N/A,,Clear,0,2013-09-17 21:15:00
4:35 PM,79.9,59.4,49,30.13,10.0,ESE,6.9,-,N/A,,Scattered Clouds,110,2013-09-17 21:35:00
4:55 PM,79.3,59.7,51,30.13,10.0,East,5.8,-,N/A,,Scattered Clouds,90,2013-09-17 21:55:00
5:15 PM,78.8,59.7,52,30.13,10.0,East,4.6,-,N/A,,Clear,90,2013-09-17 22:15:00
5:35 PM,77.9,60.1,54,30.13,10.0,East,3.5,-,N/A,,Clear,80,2013-09-17 22:35:00
5:55 PM,76.8,60.6,57,30.13,10.0,ENE,3.5,-,N/A,,Clear,70,2013-09-17 22:55:00
6:15 PM,75.0,61.2,62,30.12,10.0,Calm,Calm,-,N/A,,Clear,0,2013-09-17 23:15:00
6:35 PM,72.9,61.5,67,30.12,10.0,Calm,Calm,-,N/A,,Clear,0,2013-09-17 23:35:00
6:55 PM,69.8,61.3,74,30.12,10.0,Calm,Calm,-,N/A,,Clear,0,2013-09-17 23:55:00
7:15 PM,67.1,61.3,82,30.12,10.0,Calm,Calm,-,N/A,,Clear,0,2013-09-18 00:15:00
7:35 PM,65.7,61.0,85,30.13,10.0,Calm,Calm,-,N/A,,Clear,0,2013-09-18 00:35:00
7:55 PM,65.3,60.8,85,30.13,10.0,Calm,Calm,-,N/A,,Clear,0,2013-09-18 00:55:00
8:15 PM,64.4,62.6,94,30.14,10.0,Calm,Calm,-,N/A,,Clear,0,2013-09-18 01:15:00
8:35 PM,63.9,63.7,99,30.14,10.0,Calm,Calm,-,N/A,,Clear,0,2013-09-18 01:35:00
8:55 PM,64.0,63.3,97,30.14,10.0,Calm,Calm,-,N/A,,Clear,0,2013-09-18 01:55:00
9:15 PM,64.6,61.7,90,30.14,10.0,Calm,Calm,-,N/A,,Clear,0,2013-09-18 02:15:00
9:35 PM,64.6,61.9,91,30.14,10.0,Calm,Calm,-,N/A,,Clear,0,2013-09-18 02:35:00
9:55 PM,64.4,61.9,92,30.14,10.0,Calm,Calm,-,N/A,,Clear,0,2013-09-18 02:55:00
10:15 PM,64.0,61.9,93,30.14,10.0,Calm,Calm,-,N/A,,Clear,0,2013-09-18 03:15:00
10:35 PM,63.1,62.6,98,30.14,10.0,Calm,Calm,-,N/A,,Clear,0,2013-09-18 03:35:00
10:55 PM,63.1,63.0,99,30.14,10.0,Calm,Calm,-,N/A,,Clear,0,2013-09-18 03:55:00
11:15 PM,63.1,63.1,100,30.13,10.0,Calm,Calm,-,N/A,,Clear,0,2013-09-18 04:15:00
11:35 PM,63.0,63.0,100,30.13,10.0,Calm,Calm,-,N/A,,Mostly Cloudy,0,2013-09-18 04:35:00
11:55 PM,63.1,63.1,100,30.13,10.0,Calm,Calm,-,N/A,,Mostly Cloudy,0,2013-09-18 04:55:00